Flag for U.S.A. Weather past 2 weeks in Lewiston, Idaho, U.S.A.

Now
93 °F

Passing clouds.


Feels Like: 89 °F
Forecast: 69 / 98 °F
Wind: 7 mph from East

Location: Lewiston-Nez Perce County Airport

Current Time: Jul 7, 2015 at 7:44:24 PM

Latest Report: Jul 7, 2015 at 6:56 PM


Visibility: 10 mi

Pressure: 29.72 "Hg

Humidity: 20%

Dew point: 46 °F

Location of LewistonLocation

Historic Weather in Lewiston — Graph

°F

Lewiston temperature yesterday

Maximum temperature yesterday: 98 °F (at 2:56 PM)
Minimum temperature yesterday: 66 °F (at 4:56 AM)
Average temperature yesterday: 84 °F

Past Weeks' High & Low Weather Summary

 TemperatureHumidityPressure
High110 °F (Jun 28, 2:56 PM)59% (Jun 26, 4:56 AM)30.11 "Hg (Jun 26, 4:56 AM)
Low60 °F (Jun 24, 5:56 AM)8% (Jun 27, 2:56 PM)28.31 "Hg (Jun 29, 1:56 AM)
Average85 °F29%29.87 "Hg
* Reported Jun 22 5:56 PM — Jul 7 5:56 PM, Lewiston, Weather by CustomWeather, © 2015

Note: Actual official high and low records may vary slightly from our data, if they occured in-between our weather recording intervals... More about our weather records

Advertising

Lewiston weather history for previous 24 hours

 ConditionsComfort  
Time TempWeatherWind HumidityBarometerVisibility
5:56 PM
Tue, Jul 7
95 °FScattered clouds.No wind18%29.73 "Hg10 mi
4:56 PM96 °FPassing clouds.10 mph19%29.75 "Hg10 mi
3:56 PM96 °FSunny.10 mph19%29.77 "Hg10 mi
2:56 PM95 °FSunny.8 mph21%29.80 "Hg10 mi
1:56 PM95 °FSunny.9 mph21%29.81 "Hg10 mi
12:56 PM93 °FSunny.9 mph22%29.84 "Hg10 mi
11:56 AM91 °FSunny.No wind24%29.86 "Hg10 mi
10:56 AM87 °FSunny.6 mph25%29.87 "Hg10 mi
9:56 AM84 °FScattered clouds.8 mph30%29.88 "Hg10 mi
8:56 AM80 °FSunny.5 mph36%29.89 "Hg10 mi
7:56 AM74 °FSunny.6 mph45%29.89 "Hg10 mi
6:56 AM72 °FSunny.6 mph46%29.88 "Hg10 mi
5:56 AM70 °FClear.No wind49%29.87 "Hg10 mi
4:56 AM70 °FPassing clouds.No wind39%29.86 "Hg10 mi
3:56 AM72 °FPassing clouds.No wind40%29.84 "Hg10 mi
2:56 AM73 °FClear.No wind34%29.84 "Hg10 mi
1:56 AM74 °FClear.5 mph29%29.84 "Hg10 mi
12:56 AM76 °FClear.5 mph27%29.84 "Hg10 mi
11:56 PM
Mon, Jul 6
81 °FClear.5 mph22%29.83 "Hg10 mi
10:56 PM82 °FClear.5 mph22%29.83 "Hg10 mi
9:56 PM85 °FClear.3 mph21%29.83 "Hg10 mi
8:56 PM89 °FSunny.6 mph19%29.80 "Hg10 mi
7:56 PM93 °FSunny.6 mph16%29.79 "Hg10 mi
Weather by CustomWeather, © 2015

See weather overviewHow to use our weather pages